CW3007 Weather Reports


Display with metric or nautical units.
time (UTC)temp
F
wind
direction
speed
MPH
gust
MPH
rain 1hr
in
rain 24hr
in
rain mn
in
humidity
%
barometer
mb
20260906053036 84 180 2.0 7.0 0.00 0.00 0.00 71 1011.1
20260906052036 84 173 3.0 9.0 0.00 0.00 0.00 71 1011.1
20260906051036 84 175 3.0 6.0 0.00 0.00 0.00 70 1011.2
20260906050036 84 146 3.0 7.0 0.00 0.00 0.00 70 1011.3
20260906045036 84 156 3.0 8.0 0.00 0.00 0.00 69 1011.2
20260906044036 84 109 4.0 9.0 0.00 0.00 0.00 69 1011.3
20260906043036 85 128 4.0 9.0 0.00 0.00 0.00 68 1011.3
20260906042036 85 143 6.0 10.0 0.00 0.00 0.00 68 1011.2
20260906041036 85 82 3.0 7.0 0.00 0.00 0.00 68 1011.1
20260906040036 85 130 2.0 10.0 0.00 0.00 0.00 67 1011.1
20260906035036 85 138 3.0 9.0 0.00 0.00 0.00 67 1011.1
20260906034036 85 128 4.0 9.0 0.00 0.00 0.00 66 1011.2
20260906033036 86 115 8.0 11.0 0.00 0.00 0.00 65 1011.1
20260906032036 86 123 5.0 9.0 0.00 0.00 0.00 63 1011.1
20260906031036 87 80 7.0 13.0 0.00 0.00 0.00 62 1011.0
20260906030036 87 114 4.0 11.0 0.00 0.00 0.00 61 1010.8
20260906025036 88 82 4.0 11.0 0.00 0.00 0.00 60 1010.7
20260906024036 88 92 8.0 11.0 0.00 0.00 0.00 59 1010.4
20260906023036 89 119 9.0 13.0 0.00 0.00 0.00 58 1010.1
20260906022036 89 100 8.0 13.0 0.00 0.00 0.00 57 1009.9
20260906021036 90 81 12.0 13.0 0.00 0.00 0.00 55 1009.7
20260906020036 90 94 4.0 12.0 0.00 0.00 0.00 54 1009.5
20260906015036 90 81 5.0 12.0 0.00 0.00 0.00 52 1009.3
20260906014036 91 80 5.0 12.0 0.00 0.00 0.00 52 1009.2
20260906013036 91 92 8.0 13.0 0.00 0.00 0.00 51 1009.2
20260906012036 92 89 11.0 13.0 0.00 0.00 0.00 51 1009.1
20260906010036 93 72 8.0 13.0 0.00 0.00 0.00 49 1009.0
20260906005036 94 84 14.0 16.0 0.00 0.00 0.00 48 1009.0
20260906004036 94 103 9.0 14.0 0.00 0.00 0.00 48 1008.9
20260906003036 95 111 2.0 15.0 0.00 0.00 0.00 47 1008.9
20260906001036 96 90 3.0 14.0 0.00 0.00 0.00 45 1008.7
20260905235036 97 84 9.0 14.0 0.00 0.00 0.00 44 1008.6
20260905234036 97 120 3.0 12.0 0.00 0.00 0.00 41 1008.4
20260905233036 98 136 5.0 12.0 0.00 0.00 0.00 41 1008.4
20260905232036 98 118 8.0 12.0 0.00 0.00 0.00 41 1008.4
20260905231036 98 86 7.0 10.0 0.00 0.00 0.00 39 1008.2
20260905230036 100 107 7.0 12.0 0.00 0.00 0.00 38 1008.3
20260905225036 100 64 3.0 7.0 0.00 0.00 0.00 37 1008.3
20260905224036 99 234 2.0 6.0 0.00 0.00 0.00 37 1008.4
20260905223036 98 138 1.0 6.0 0.00 0.00 0.00 38 1008.5
20260905222036 96 156 2.0 4.0 0.00 0.00 0.00 40 1008.6
20260905221036 96 157 0.0 2.0 0.00 0.00 0.00 41 1008.7
20260905220036 97 76 0.0 9.0 0.00 0.00 0.00 39 1008.7
20260905215036 98 71 4.0 9.0 0.00 0.00 0.00 38 1008.6
20260905214036 99 170 0.0 9.0 0.00 0.00 0.00 39 1008.6
20260905213036 99 175 3.0 7.0 0.00 0.00 0.00 38 1008.7
20260905212036 99 190 6.0 12.0 0.00 0.00 0.00 38 1008.8
20260905211036 98 223 2.0 6.0 0.00 0.00 0.00 40 1008.9
20260905203036 98 126 8.0 11.0 0.00 0.00 0.00 40 1009.7
20260905202036 98 188 3.0 10.0 0.00 0.00 0.00 39 1009.7
20260905201036 98 180 0.0 7.0 0.00 0.00 0.00 41 1009.8
20260905195036 97 245 7.0 9.0 0.00 0.00 0.00 41 1010.3
20260905194036 96 13 3.0 8.0 0.00 0.00 0.00 42 1010.4
20260905193036 96 184 3.0 9.0 0.00 0.00 0.00 41 1010.6
20260905192036 96 213 2.0 7.0 0.00 0.00 0.00 44 1010.8
20260905191036 96 233 5.0 8.0 0.00 0.00 0.00 44 1010.9
20260905190036 96 71 0.0 9.0 0.00 0.00 0.00 45 1011.1
20260905184036 95 155 4.0 9.0 0.00 0.00 0.00 46 1011.5
20260905183036 95 186 1.0 11.0 0.00 0.00 0.00 45 1011.7
20260905182036 94 199 0.0 7.0 0.00 0.00 0.00 49 1011.8
20260905181036 94 113 4.0 12.0 0.00 0.00 0.00 49 1012.0
20260905180036 94 148 0.0 10.0 0.00 0.00 0.00 47 1012.2
20260905175036 94 88 5.0 12.0 0.00 0.00 0.00 52 1012.4
20260905174036 93 200 2.0 8.0 0.00 0.00 0.00 52 1012.5
20260905173036 92 230 6.0 15.0 0.00 0.00 0.00 52 1012.7
20260905171036 92 118 6.0 9.0 0.00 0.00 0.00 54 1012.9
20260905170036 92 232 4.0 13.0 0.00 0.00 0.00 55 1013.0
20260905165036 92 155 6.0 9.0 0.00 0.00 0.00 57 1013.1
20260905164036 90 176 7.0 8.0 0.00 0.00 0.00 59 1013.1
20260905163036 89 263 2.0 10.0 0.00 0.00 0.00 60 1013.1
20260905162036 90 233 6.0 9.0 0.00 0.00 0.00 59 1013.1
20260905161035 90 231 3.0 9.0 0.00 0.00 0.00 61 1013.0
20260905160036 89 155 3.0 10.0 0.00 0.00 0.00 59 1013.0
20260905155036 89 196 6.0 10.0 0.00 0.00 0.00 63 1013.0
20260905154035 89 203 2.0 9.0 0.00 0.00 0.00 66 1013.1
20260905153035 88 209 1.0 8.0 0.00 0.00 0.00 67 1013.1
20260905152036 87 180 6.0 8.0 0.00 0.00 0.00 68 1013.0
20260905151035 87 254 3.0 9.0 0.00 0.00 0.00 68 1013.0
20260905150036 86 133 4.0 7.0 0.00 0.00 0.00 72 1013.0
20260905145035 85 151 5.0 9.0 0.00 0.00 0.00 74 1013.0
20260905143035 84 189 3.0 9.0 0.00 0.00 0.00 76 1013.0
20260905142036 84 180 0.0 5.0 0.00 0.00 0.00 79 1013.1
20260905141035 83 146 3.0 7.0 0.00 0.00 0.00 80 1013.0
20260905140035 83 152 3.0 7.0 0.00 0.00 0.00 81 1012.9
20260905135035 82 132 3.0 7.0 0.00 0.00 0.00 82 1012.9
20260905134036 81 171 2.0 6.0 0.00 0.00 0.00 83 1012.8
20260905133035 81 163 2.0 5.0 0.00 0.00 0.00 84 1012.8
20260905131035 79 165 4.0 4.0 0.00 0.00 0.00 86 1012.5
20260905130036 79 173 0.0 4.0 0.00 0.00 0.00 86 1012.4
20260905125035 78 171 0.0 4.0 0.00 0.00 0.00 87 1012.3
20260905124036 78 188 2.0 4.0 0.00 0.00 0.00 87 1012.2
20260905123035 77 161 2.0 2.0 0.00 0.00 0.00 87 1012.1
20260905122036 76 145 0.0 1.0 0.00 0.00 0.00 86 1012.0
20260905121035 77 116 0.0 1.0 0.00 0.00 0.00 86 1012.0
20260905120035 77 169 0.0 0.0 0.00 0.00 0.00 86 1011.9
20260905115036 77 169 0.0 0.0 0.00 0.00 0.00 86 1011.8
20260905114035 77 169 0.0 0.0 0.00 0.00 0.00 86 1011.7
20260905112035 77 169 0.0 0.0 0.00 0.00 0.00 85 1011.6
20260905111035 77 169 0.0 0.0 0.00 0.00 0.00 85 1011.5
20260905110035 77 169 0.0 0.0 0.00 0.00 0.00 84 1011.5
20260905105036 77 169 0.0 0.0 0.00 0.00 0.00 84 1011.5
20260905104035 78 169 0.0 0.0 0.00 0.00 0.00 84 1011.6
20260905103035 78 169 0.0 0.0 0.00 0.00 0.00 84 1011.5
20260905102035 78 169 0.0 0.0 0.00 0.00 0.00 83 1011.6
20260905101035 78 169 0.0 0.0 0.00 0.00 0.00 83 1011.4
20260905100035 79 169 0.0 0.0 0.00 0.00 0.00 83 1011.3
20260905095035 79 169 0.0 0.0 0.00 0.00 0.00 83 1011.3
20260905094035 79 185 1.0 3.0 0.00 0.00 0.00 83 1011.4
20260905093035 79 191 0.0 3.0 0.00 0.00 0.00 83 1011.3
20260905092035 79 169 0.0 6.0 0.00 0.00 0.00 82 1011.4
20260905091035 79 150 2.0 6.0 0.00 0.00 0.00 82 1011.4
20260905090035 79 167 4.0 6.0 0.00 0.00 0.00 82 1011.4
20260905085035 79 191 2.0 5.0 0.00 0.00 0.00 82 1011.4
20260905084035 79 175 1.0 3.0 0.00 0.00 0.00 82 1011.6
20260905083035 79 189 0.0 3.0 0.00 0.00 0.00 81 1011.6
20260905082035 79 159 1.0 5.0 0.00 0.00 0.00 81 1011.4
20260905081035 79 178 1.0 4.0 0.00 0.00 0.00 80 1011.5
20260905080035 80 167 1.0 6.0 0.00 0.00 0.00 80 1011.6
20260905075035 80 146 1.0 6.0 0.00 0.00 0.00 79 1011.6
20260905074035 80 172 2.0 7.0 0.00 0.00 0.00 79 1011.6
20260905073035 80 167 5.0 6.0 0.00 0.00 0.00 79 1011.7
20260905071035 80 176 2.0 6.0 0.00 0.00 0.00 78 1011.8
20260905070035 80 154 2.0 6.0 0.00 0.00 0.00 78 1011.9
20260905064035 81 165 5.0 8.0 0.00 0.00 0.00 77 1012.0
20260905063035 81 184 4.0 8.0 0.00 0.00 0.00 76 1011.9
20260905060035 81 180 2.0 7.0 0.00 0.00 0.00 75 1012.1
20260905055035 81 127 3.0 8.0 0.00 0.00 0.00 75 1012.0